sat.trackr.live / text

‹ back to catalog

STARLINK-3231

NORAD 49744 · 2021-115W

PAYLOAD ACTIVE UNKNOWN

§ Identity

Operator
Country
US
Launch date
2021-12-02
Launch site
AFETR
Launch vehicle
Mass (kg)
RCS (m²)

Purposes: comms

External: N2YO · Heavens-Above · Gunter

§ Orbital elements

Epoch: 2026-09-19T14:08:15.710208Z

Period
94.01 min
Inclination
53.1619°
Eccentricity
0.0001131
Mean motion
15.31703582 rev/d
Perigee alt
470.0 km
Apogee alt
471.5 km
Semi-major
6,848.9 km
B*
3.2491e-5
RAAN
343.9996°
Arg perigee
79.7339°
Mean anomaly
280.3790°
Rev number
26,500

§ Raw data

STARLINK-32311 49744U 21115W   26262.58907072  .00000643  00000+0  32491-4 0  99992 49744  53.1619 343.9996 0001131  79.7339 280.3790 15.31703582265009

JSON: /api/v1/satellites/49744 · /tle

For live sub-satellite position, see the globe view (requires WebGL).

§ Visibility from observer

Set your observer location to see the next 7 days of passes ≥ 10°. The values pass through the URL so the page stays shareable.

No JS? Fill the form by hand. The geolocation button needs JavaScript.